DW7779 Weather Reports


time (UTC)temp
C
wind
direction
speed
KPH
gust
KPH
rain 1hr
cm
rain 24hr
cm
rain mn
cm
humidity
%
barometer
mb
20260504081513 15 6.4 16.1 0.00 0.00 0.00 77 1008.2
20260504050004 17 9.7 33.8 0.00 0.00 0.00 65 1006.6
20260504044504 17 14.5 27.4 0.00 0.00 0.00 64 1006.6
20260504043001 17 12.9 32.2 0.00 0.00 0.00 64 1006.6
20260504041600 17 11.3 27.4 0.00 0.00 0.00 64 1006.5
20260504040105 18 6.4 24.1 0.00 0.00 0.00 63 1006.5
20260504034555 18 12.9 25.7 0.00 0.00 0.00 65 1006.6
20260504033052 18 12.9 27.4 0.00 0.00 0.00 64 1006.7
20260504031617 17 17.7 33.8 0.00 0.00 0.00 63 1006.9
20260504030048 17 14.5 30.6 0.00 0.00 0.00 64 1007.2
20260504024545 17 11.3 20.9 0.00 0.03 0.00 66 1007.4
20260504023041 16 14.5 29.0 0.00 0.03 0.00 67 1007.5
20260504021539 16 8.0 29.0 0.00 0.03 0.00 69 1007.8
20260504020040 16 8.0 32.2 0.00 0.03 0.00 69 1008.0
20260504014537 16 12.9 29.0 0.00 0.61 0.00 68 1008.2
20260504013037 16 12.9 27.4 0.00 0.61 0.00 67 1008.1
20260504011535 16 12.9 27.4 0.00 0.61 0.00 67 1008.2
20260504010041 17 9.7 16.1 0.00 0.61 0.00 65 1008.3
20260504004533 17 6.4 17.7 0.00 0.76 0.00 65 1008.3
20260504003030 16 6.4 16.1 0.00 0.76 0.00 65 1008.4
20260504001527 16 8.0 20.9 0.00 0.76 0.00 67 1008.6
20260504000025 16 6.4 16.1 0.00 0.76 0.00 68 1008.7
20260503234527 16 3.2 16.1 0.00 0.86 0.00 70 1008.8
20260503233019 15 9.7 22.5 0.00 0.86 0.00 72 1008.9
20260503231519 14 1.6 4.8 0.00 0.86 0.00 74 1008.9
20260503230019 14 0.0 8.0 0.00 0.86 0.00 75 1008.9
20260503224511 13 1.6 6.4 0.00 0.86 0.00 79 1008.9
20260503223010 12 0.0 3.2 0.00 0.86 0.00 82 1009.1
20260503221504 11 0.0 3.2 0.00 0.86 0.00 84 1009.1
20260503220004 10 0.0 3.2 0.00 0.86 0.00 85 1009.1
20260503214503 10 0.0 3.2 0.00 0.86 0.00 86 1009.0
20260503213002 10 0.0 3.2 0.00 0.86 0.00 86 1009.2
20260503211502 10 0.0 4.8 0.00 0.86 0.00 85 1009.1
20260503210001 10 0.0 1.6 0.00 0.86 0.00 84 1009.1
20260503204621 10 0.0 1.6 0.00 0.86 0.00 83 1009.1
20260503203114 10 0.0 4.8 0.00 0.86 0.00 83 1008.8
20260503201559 10 0.0 0.0 0.00 0.86 0.00 82 1008.7
20260503200059 11 0.0 3.2 0.00 0.86 0.00 80 1008.8
20260503194556 11 0.0 3.2 0.00 0.86 0.00 80 1008.7
20260503193055 10 0.0 9.7 0.00 0.86 0.00 84 1008.7
20260503191603 8 1.6 4.8 0.00 0.86 0.00 87 1008.9
20260503190051 9 0.0 1.6 0.00 0.86 0.00 85 1009.0
20260503184604 10 0.0 1.6 0.00 0.86 0.00 80 1009.2
20260503183047 11 0.0 3.2 0.00 0.86 0.00 79 1009.2
20260503181544 11 0.0 1.6 0.00 0.86 0.00 79 1009.2
20260503180043 11 0.0 1.6 0.00 0.86 0.00 79 1009.3
20260503174553 11 0.0 3.2 0.00 0.86 0.00 80 1009.5
20260503173040 11 0.0 3.2 0.00 0.86 0.00 80 1009.5
20260503171539 10 0.0 3.2 0.00 0.86 0.00 81 1009.6